Погода в Оленьке

Россия / Республика Саха (Якутия)     68°30′08″N   112°26′50″E
темп.,
°C
ветер,
м/с
пор.,
м/с
влажн.,
%
обл.,
%
осадки,
мм/ч
давл.,
гПа
погр.,
м
27 февраля, сб
сб2700:00−34всв119494 0.0 103119
03:00−34всв119690 0.0 102919
06:00−31всв1197100 0.0 102919
09:00−30всв1197100 0.1 102919
12:00−29всв1294100 0.1 1028229
15:00−27в3493100 0.1 1026341
18:00−28в3497100 0.1 1027129
21:00−31в2397100 0.1 102628
28 февраля, вс
вс2800:00−30всв1298100 0.1 102623
03:00−30св1199100 0.2 102529
06:00−31св1199100 0.2 102524
09:00−31св1199100 0.4 102520
12:00−29св1294100 0.1 1026249
15:00−28св1190100 0.3 1025353
18:00−28сз0097100 0.1 102619
21:00−29сз1198100 0.1 102720
1 марта, пн
пн100:00−31ссз119996 0.1 102719
03:00−32ссз119898 0.1 102719
06:00−33сз1198100 0.0 102819
09:00−34зсз1198100 0.1 102819
12:00−31з1295100 0.0 1027143
15:00−29зсз3392100 0.1 1027397
18:00−30з2296100 0.1 102731
21:00−32з119999 0.1 102719
2 марта, вт
вт200:00−34з11100100 0.0 102719
03:00−35зюз11100100 0.1 102619
06:00−37юз11100100 0.0 102719
09:00−38юз11100100 0.0 102819
12:00−34юз119693 0.0 102885
15:00−32юз118866 0.0 1028243
18:00−36зюз119643 0.0 102919
21:00−38зюз119649 0.0 103019
3 марта, ср
ср300:00−38юз119589 0.0 103019
03:00−37зюз119293 0.0 103019
06:00−37зюз1192100 0.0 103019
09:00−36зюз1192100 0.0 103019
12:00−34зюз1189100 0.0 1030147
15:00−32з238698 0.0 1029327
18:00−35зсз119455 0.0 102919
21:00−38з119728 0.0 103019